Home   Weather   Firozpur   Past weeks

Flag for India Past Weather in Firozpur, Punjab, India — Yesterday and Last 2 Weeks

Now
84 °F

Passing clouds.


Feels Like: 92 °F
Forecast: 77 / 101 °F
Wind: No wind

Location: Lahore Airport

Current Time: Sep 30, 2016 at 2:06:55 AM

Latest Report: Sep 30, 2016 at 1:25 AM


Visibility: 2 mi

Pressure: 29.74 "Hg

Humidity: 74%

Dew Point: 75 °F

Location of FirozpurLocation

Past Weather in Firozpur — Graph

°F

Firozpur Temperature Yesterday

Maximum temperature yesterday: 97 °F (at 3:25 PM)
Minimum temperature yesterday: 79 °F (at 6:00 AM)
Average temperature yesterday: 87 °F

High & Low Weather Summary for the Past Weeks

 TemperatureHumidityPressure
High99 °F (Sep 19, 3:30 PM)89% (Sep 21, 7:25 AM)29.86 "Hg (Sep 21, 7:25 AM)
Low73 °F (Sep 23, 6:25 AM)17% (Sep 21, 8:59 AM)29.59 "Hg (Sep 20, 4:55 PM)
Average87 °F66%29.71 "Hg
* Reported Sep 15 12:55 AM — Sep 30 12:55 AM, Firozpur, Weather by CustomWeather, © 2016

Note: Actual official high and low records may vary slightly from our data, if they occured in-between our weather recording intervals... More about our weather records

Advertising

Firozpur Weather History for the Previous 24 Hours

Scroll right to see more
 ConditionsComfort  
Time TempWeatherWind HumidityBarometerVisibility
12:55 AM
Fri, Sep 30
84 °FClear.3 mph74%29.74 "Hg3 mi
11:55 PM
Thu, Sep 29
86 °FClear.5 mph70%29.71 "Hg3 mi
11:25 PM86 °FClear.3 mph70%29.71 "Hg3 mi
10:55 PM86 °FClear.3 mph70%29.71 "Hg3 mi
10:25 PM86 °FClear.5 mph70%29.71 "Hg3 mi
9:25 PM88 °FPassing clouds.5 mph66%29.71 "Hg3 mi
8:55 PM90 °FPassing clouds.No wind63%29.71 "Hg3 mi
8:25 PM90 °FPassing clouds.3 mph63%29.71 "Hg3 mi
7:25 PM91 °FPassing clouds.5 mph56%29.68 "Hg3 mi
6:25 PM93 °FPassing clouds.3 mph53%29.68 "Hg3 mi
5:55 PM95 °FScattered clouds.3 mph50%29.68 "Hg3 mi
4:25 PM97 °FScattered clouds.3 mph47%29.68 "Hg3 mi
3:55 PM97 °FScattered clouds.No wind47%29.68 "Hg3 mi
3:25 PM97 °FScattered clouds.No wind47%29.68 "Hg3 mi
2:55 PM95 °FScattered clouds.6 mph50%29.71 "Hg3 mi
2:25 PM95 °FScattered clouds.6 mph50%29.71 "Hg3 mi
1:59 PM95 °FScattered clouds.No wind50%29.71 "Hg3 mi
12:59 PM93 °FPassing clouds.5 mph53%29.74 "Hg3 mi
12:29 PM93 °FPassing clouds.3 mph53%29.77 "Hg3 mi
11:59 AM91 °FClear.3 mph56%29.77 "Hg3 mi
11:29 AM90 °FClear.5 mph59%29.77 "Hg2 mi
10:59 AM88 °FClear.5 mph66%29.77 "Hg2 mi
10:30 AM88 °FHaze.7 mph66%29.68 "Hg3 mi
9:59 AM86 °FClear.6 mph66%29.80 "Hg2 mi
9:29 AM84 °FClear.6 mph70%29.77 "Hg2 mi
8:29 AM82 °FFog.5 mph79%29.77 "Hg1 mi
7:30 AM79 °FFog.3 mph89%29.77 "Hg1 mi
6:30 AM79 °FFog.3 mph89%29.74 "Hg2 mi
6:00 AM79 °FClear.3 mph89%29.74 "Hg2 mi
5:00 AM81 °FClear.3 mph84%29.71 "Hg2 mi
4:25 AM81 °FClear.5 mph84%29.71 "Hg2 mi
3:55 AM81 °FClear.5 mph84%29.71 "Hg2 mi
3:25 AM81 °FClear.No wind84%29.71 "Hg2 mi
2:55 AM82 °FClear.3 mph79%29.71 "Hg2 mi
2:25 AM82 °FClear.3 mph79%29.71 "Hg2 mi
Weather by CustomWeather, © 2016

See weather overviewHow to use our weather pages